Location: Karlsruhe
(49.0069°N, 8.4037°E)
Time: 22:09:29
(UTC+02:00)

ISS - Visible Passes

Search period start: 18 July 2018 00:00
Search period end: 28 July 2018 00:00
Orbit: 402 x 408 km, 51.6° (Epoch: 19 July)

Date Brightness Start Highest point End Pass type
(mag) Time Alt. Az. Time Alt. Az. Time Alt. Az.
18 Jul -3.5 00:50:11 52° E 00:50:11 52° E 00:52:49 10° ENE visible
18 Jul -3.0 02:22:54 10° W 02:26:09 52° N 02:29:23 10° ENE visible
18 Jul -3.6 03:59:34 10° WNW 04:02:52 75° NNE 04:06:10 10° ESE visible
18 Jul -3.3 23:58:10 40° ESE 23:58:10 40° ESE 00:00:41 10° ENE visible
19 Jul -3.2 01:30:43 10° W 01:33:58 58° N 01:37:15 10° ENE visible
19 Jul -3.3 03:07:27 10° WNW 03:10:44 60° N 03:14:00 10° E visible
19 Jul -3.5 04:44:01 10° WNW 04:47:12 46° SSW 04:50:22 10° SE visible
19 Jul -3.1 23:02:31 10° SSW 23:05:29 31° SE 23:08:26 10° E visible
20 Jul -3.6 00:38:32 10° W 00:41:49 71° NNW 00:45:07 10° ENE visible
20 Jul -3.0 02:15:19 10° WNW 02:18:33 52° N 02:21:47 10° E visible
20 Jul -3.9 03:51:51 10° WNW 03:55:09 70° SSW 03:58:27 10° ESE visible
20 Jul -2.4 22:11:04 10° S 22:13:32 20° SE 22:16:01 10° E visible
20 Jul -4.0 23:46:24 10° WSW 23:49:40 86° SSE 23:52:59 10° ENE visible
21 Jul -3.0 01:23:07 10° W 01:26:21 51° N 01:29:35 10° ENE visible
21 Jul -3.8 02:59:44 10° WNW 03:03:02 83° NNE 03:06:20 10° ESE visible
21 Jul -2.7 04:36:32 10° W 04:39:17 24° SW 04:42:01 10° SSE visible
21 Jul -3.8 22:54:21 10° SW 22:57:35 58° SSE 23:00:50 10° ENE visible
22 Jul -3.1 00:30:53 10° W 00:34:08 55° N 00:37:23 10° ENE visible
22 Jul -3.4 02:07:36 10° WNW 02:10:52 64° NNE 02:14:09 10° E visible
22 Jul -3.4 03:44:11 10° WNW 03:47:17 38° SSW 03:50:23 10° SE visible
22 Jul -3.3 22:02:28 10° SW 22:05:32 37° SSE 22:08:36 10° E visible
22 Jul -3.4 23:38:39 10° W 23:41:56 65° NNW 23:45:12 10° ENE visible
23 Jul -3.1 01:15:26 10° WNW 01:18:40 54° N 01:20:47 19° E visible
23 Jul -2.1 02:51:58 10° WNW 02:53:17 22° W 02:53:17 22° W visible
23 Jul -3.8 22:46:28 10° WSW 22:49:44 84° NNW 22:53:02 10° ENE visible
24 Jul -3.0 00:23:12 10° WNW 00:26:26 51° N 00:29:04 14° ENE visible
24 Jul -2.5 01:59:47 10° WNW 02:01:39 31° WNW 02:01:39 31° WNW visible
24 Jul -3.9 21:54:20 10° WSW 21:57:35 68° SSE 22:00:51 10° ENE visible
24 Jul -3.0 23:30:57 10° W 23:34:11 53° N 23:37:25 10° ENE visible
25 Jul -3.5 01:07:37 10° WNW 01:10:40 65° NNW 01:10:40 65° NNW visible
25 Jul -3.3 22:38:40 10° W 22:41:56 60° N 22:45:11 10° ENE visible
26 Jul -3.2 00:15:25 10° WNW 00:18:40 57° N 00:19:52 33° ENE visible
26 Jul -1.3 01:51:58 10° WNW 01:52:29 14° WNW 01:52:29 14° WNW visible
26 Jul -3.6 21:46:25 10° WSW 21:49:41 76° NNW 21:52:59 10° ENE visible
26 Jul -3.0 23:23:10 10° WNW 23:26:24 51° N 23:29:09 13° E visible
27 Jul -2.6 00:59:44 10° WNW 01:01:46 35° WNW 01:01:46 35° WNW visible
27 Jul -3.0 22:30:53 10° W 22:34:06 51° N 22:37:20 10° ENE visible
